Погода в Куала-Белаите

Бруней     4°34′45″N   114°13′03″E
темп.,
°C
ветер,
м/с
пор.,
м/с
влажн.,
%
обл.,
%
осадки,
мм/ч
давл.,
гПа
погр.,
м
28 ноября, вс
вс2823:00+24ююз1194100 0.2 100926
02:00+24ю1197100 1.8 100828
05:00+23вюв1198100 3.4 100822
08:00+24вюв1196100 3.4 101066
11:00+29сз1177100 1.4 1010596
14:00+30с1270100 3.9 10071062
17:00+27св1284100 1.9 1006184
20:00+24св1195100 4.6 100915
29 ноября, пн
пн2923:00+24всв009797 1.9 101012
02:00+23св0098100 5.1 100818
05:00+24ююв1196100 1.8 100816
08:00+25ююв1291100 2.5 1010145
11:00+29зюз127538 2.5 1010870
14:00+28зюз247886 5.3 10071016
17:00+25юз2791100 3.8 1007443
20:00+23ю1598100 10.6 1010188
30 ноября, вт
вт3023:00+23ююв2699100 7.9 1011310
02:00+22ююз279899 9.3 1009302
05:00+22ююз2799100 1.0 1009261
08:00+23ю1797100 1.1 1011259
11:00+24ю1495100 0.1 1011225
14:00+26з248099 0.3 1008687
17:00+26зюз247924 0.3 1008658
20:00+23ю119446 0.3 101116
1 декабря, ср
ср123:00+23ююв1195100 0.0 101138
02:00+23ююв1295100 0.1 100957
05:00+22ююв1297100 0.3 100970
08:00+24ююв138975 0.3 1011129
11:00+31ююз116017 0.1 10101111
14:00+29ссз227627 1.5 1007668
17:00+27ссз23815 1.1 1007365
20:00+24с019393 1.5 100911
2 декабря, чт
чт223:00+24ююв0094100 0.0 101013
02:00+23ююв1197100 0.4 100929
05:00+23ююв119885 0.1 100943
08:00+25ююв138825 0.1 1010247
11:00+30ю127380 1.8 1010845
14:00+30сз336947 2.5 1007807
17:00+27зсз1488100 2.8 1007145
20:00+24ссз1193100 3.4 101011